CW1575 Weather Reports


Display with metric or nautical units.
time (UTC)temp
F
wind
direction
speed
MPH
gust
MPH
rain 1hr
in
rain 24hr
in
rain mn
in
humidity
%
barometer
mb
20140923161525 71 161 1.0 3.0 0.00 0.00 0.00 54 1021.8
20140923160525 69 169 1.0 6.0 0.00 0.00 0.00 53 1021.6
20140923155524 67 108 2.0 6.0 0.00 0.00 0.00 56 1021.3
20140923154524 64 224 2.0 3.0 0.00 0.01 0.00 63 1021.5
20140923153523 63 156 1.0 3.0 0.00 0.02 0.00 64 1021.8
20140923152527 61 101 0.0 2.0 0.00 0.03 0.00 66 1021.9
20140923151523 60 106 2.0 3.0 0.00 0.04 0.00 71 1021.8
20140923150523 59 31 0.0 2.0 0.00 0.04 0.00 74 1021.7
20140923145526 58 112 0.0 2.0 0.00 0.04 0.00 75 1021.8
20140923144524 57 112 1.0 3.0 0.00 0.04 0.00 76 1021.7
20140923143523 57 112 1.0 3.0 0.00 0.04 0.00 81 1021.7
20140923142524 56 110 0.0 2.0 0.00 0.04 0.00 79 1021.8
20140923141524 55 45 2.0 3.0 0.00 0.04 0.00 82 1021.7
20140923140524 55 262 1.0 2.0 0.00 0.04 0.00 82 1021.4
20140923135524 55 253 1.0 3.0 0.00 0.04 0.00 82 1021.3
20140923134524 55 5 0.0 5.0 0.00 0.04 0.00 82 1021.4
20140923133523 55 13 2.0 3.0 0.00 0.04 0.00 83 1021.3
20140923132524 55 203 1.0 3.0 0.00 0.04 0.00 83 1021.2
20140923131523 55 250 2.0 3.0 0.00 0.04 0.00 84 1021.2
20140923130524 55 221 0.0 3.0 0.00 0.04 0.00 84 1021.1
20140923125524 55 180 1.0 3.0 0.00 0.04 0.00 84 1021.2
20140923124524 55 243 1.0 3.0 0.00 0.04 0.00 84 1020.9
20140923123525 55 340 1.0 2.0 0.00 0.04 0.00 84 1020.9
20140923122524 55 16 0.0 2.0 0.00 0.04 0.00 84 1020.8
20140923121523 55 327 0.0 2.0 0.00 0.04 0.00 84 1021.1
20140923120525 55 38 1.0 2.0 0.00 0.04 0.00 84 1021.2
20140923115525 55 62 1.0 2.0 0.00 0.04 0.00 83 1021.0
20140923114525 55 159 1.0 3.0 0.00 0.04 0.00 83 1020.8
20140923113526 55 185 0.0 2.0 0.00 0.04 0.00 82 1020.7
20140923112524 55 185 2.0 3.0 0.00 0.04 0.00 82 1020.8
20140923111524 56 153 0.0 2.0 0.00 0.04 0.00 81 1020.9
20140923110524 56 154 0.0 1.0 0.00 0.04 0.00 81 1021.0
20140923105524 56 154 1.0 2.0 0.00 0.04 0.00 80 1021.3
20140923104524 56 154 0.0 1.0 0.00 0.04 0.00 80 1021.1
20140923103524 56 154 1.0 2.0 0.00 0.04 0.00 79 1021.0
20140923102524 56 132 1.0 2.0 0.00 0.04 0.00 78 1021.0
20140923101524 56 131 1.0 2.0 0.00 0.04 0.00 77 1021.0
20140923100525 56 131 2.0 6.0 0.00 0.04 0.00 76 1020.8
20140923095523 56 111 0.0 3.0 0.00 0.04 0.00 77 1021.0
20140923094524 56 129 1.0 2.0 0.00 0.04 0.00 80 1020.9
20140923093524 55 160 0.0 3.0 0.00 0.04 0.00 80 1020.8
20140923092524 55 180 1.0 3.0 0.00 0.04 0.00 82 1020.7
20140923091524 55 191 2.0 6.0 0.00 0.04 0.00 83 1020.8
20140923090526 55 258 0.0 3.0 0.00 0.04 0.00 83 1020.8
20140923085524 55 185 0.0 2.0 0.00 0.04 0.00 84 1020.8
20140923084523 56 189 1.0 3.0 0.00 0.04 0.00 84 1020.9
20140923083523 56 230 1.0 2.0 0.00 0.04 0.00 85 1021.0
20140923082524 56 232 1.0 2.0 0.00 0.04 0.00 85 1021.3
20140923081524 56 227 1.0 3.0 0.00 0.04 0.00 85 1021.3
20140923080523 56 229 1.0 2.0 0.00 0.04 0.00 85 1021.3
20140923075524 56 224 0.0 2.0 0.00 0.04 0.00 85 1021.5
20140923074524 56 225 1.0 2.0 0.00 0.04 0.00 86 1021.5
20140923073524 56 236 1.0 2.0 0.00 0.04 0.00 86 1021.6
20140923072523 56 244 0.0 2.0 0.00 0.04 0.00 85 1021.6
20140923071524 56 244 1.0 2.0 0.00 0.04 0.00 85 1021.4
20140923070523 56 244 0.0 3.0 0.00 0.04 0.00 85 1021.5
20140923065524 56 170 1.0 2.0 0.00 0.04 0.00 85 1021.4
20140923064525 57 114 0.0 2.0 0.00 0.04 0.00 85 1021.3
20140923063524 57 114 1.0 3.0 0.00 0.04 0.00 84 1021.4
20140923062525 57 114 1.0 2.0 0.00 0.04 0.00 83 1021.3
20140923061515 57 114 1.0 3.0 0.00 0.04 0.00 83 1021.2
20140923060523 57 114 2.0 3.0 0.00 0.04 0.00 83 1021.3
20140923055524 58 355 1.0 2.0 0.00 0.04 0.04 83 1021.3
20140923054524 58 0 0.0 3.0 0.00 0.04 0.04 83 1021.2
20140923053523 58 88 1.0 5.0 0.00 0.04 0.04 82 1021.1
20140923052523 59 200 0.0 2.0 0.00 0.04 0.04 82 1021.2
20140923051523 59 200 1.0 2.0 0.00 0.04 0.04 81 1021.2
20140923050523 59 199 0.0 2.0 0.00 0.05 0.04 80 1021.1
20140923045523 60 199 0.0 2.0 0.00 0.05 0.04 79 1021.1
20140923044525 60 199 0.0 1.0 0.00 0.05 0.04 78 1021.2
20140923043525 61 199 1.0 2.0 0.00 0.05 0.04 77 1021.1
20140923042524 61 199 0.0 1.0 0.00 0.05 0.04 76 1021.0
20140923041523 61 199 0.0 1.0 0.00 0.05 0.04 76 1021.1
20140923040525 61 199 0.0 1.0 0.00 0.07 0.04 76 1021.0
20140923035523 62 199 0.0 1.0 0.00 0.08 0.04 76 1020.9
20140923034524 62 199 0.0 2.0 0.00 0.09 0.04 75 1020.9
20140923033523 62 173 0.0 1.0 0.00 0.11 0.04 74 1021.1
20140923032523 62 173 0.0 1.0 0.00 0.13 0.04 74 1021.2
20140923031523 62 173 0.0 1.0 0.00 0.15 0.04 72 1021.3
20140923030523 62 173 0.0 0.0 0.00 0.17 0.04 71 1021.0
20140923025523 62 173 0.0 1.0 0.00 0.17 0.04 70 1020.9
20140923024523 63 173 1.0 2.0 0.00 0.18 0.04 70 1021.0
20140923023523 63 172 1.0 2.0 0.00 0.19 0.04 68 1020.9
20140923022524 64 214 0.0 1.0 0.00 0.20 0.04 69 1020.9
20140923021524 64 214 1.0 2.0 0.00 0.21 0.04 68 1020.9
20140923020525 65 199 0.0 2.0 0.00 0.22 0.04 66 1020.7
20140923015524 66 199 1.0 1.0 0.00 0.23 0.04 65 1020.6
20140923014524 66 199 0.0 1.0 0.00 0.24 0.04 63 1020.5
20140923013524 67 199 1.0 1.0 0.00 0.24 0.04 62 1020.5
20140923012524 68 199 0.0 2.0 0.00 0.24 0.04 60 1020.4
20140923011523 69 199 1.0 2.0 0.00 0.24 0.04 59 1020.2
20140923010524 70 199 0.0 2.0 0.00 0.24 0.04 56 1020.4
20140923005523 71 200 0.0 2.0 0.00 0.24 0.04 54 1020.3
20140923004523 72 204 1.0 3.0 0.00 0.24 0.04 52 1020.3
20140923003524 72 180 1.0 3.0 0.00 0.24 0.04 49 1020.3
20140923002523 73 209 2.0 6.0 0.00 0.24 0.04 50 1020.3
20140923001526 73 214 3.0 8.0 0.00 0.24 0.04 48 1020.1
20140923000526 74 208 2.0 6.0 0.00 0.24 0.04 47 1020.2
20140922235523 74 212 1.0 3.0 0.00 0.24 0.04 46 1020.1
20140922234524 75 216 1.0 3.0 0.00 0.24 0.04 44 1019.8
20140922233523 75 136 0.0 2.0 0.00 0.24 0.04 43 1019.8
20140922232523 76 101 1.0 1.0 0.00 0.24 0.04 41 1019.7
20140922231524 77 101 0.0 3.0 0.00 0.24 0.04 39 1019.7
20140922230523 77 311 2.0 3.0 0.00 0.24 0.04 39 1019.7
20140922225523 78 45 1.0 3.0 0.00 0.24 0.04 37 1019.9
20140922224523 78 114 1.0 3.0 0.00 0.24 0.04 36 1019.9
20140922223523 78 61 2.0 6.0 0.00 0.24 0.04 36 1020.0
20140922222523 78 31 2.0 7.0 0.00 0.24 0.04 38 1020.0
20140922221523 77 337 3.0 6.0 0.00 0.24 0.04 39 1020.0
20140922220524 77 28 3.0 9.0 0.00 0.24 0.04 41 1020.0
20140922215524 75 32 6.0 12.0 0.00 0.24 0.04 45 1019.9
20140922214523 74 336 5.0 12.0 0.00 0.24 0.04 46 1019.9
20140922213523 72 14 3.0 9.0 0.00 0.24 0.04 49 1019.9
20140922212523 71 18 4.0 12.0 0.00 0.24 0.04 51 1020.0
20140922211523 71 319 5.0 12.0 0.00 0.24 0.04 47 1020.0
20140922210523 72 321 6.0 18.0 0.00 0.24 0.04 45 1020.4
20140922205524 73 312 5.0 16.0 0.00 0.24 0.04 47 1020.7
20140922204523 74 9 5.0 14.0 0.00 0.24 0.04 53 1021.0
20140922203523 74 333 7.0 13.0 0.00 0.24 0.04 53 1020.9
20140922202523 75 346 5.0 12.0 0.00 0.24 0.04 53 1021.0
20140922201523 76 301 6.0 14.0 0.00 0.24 0.04 52 1020.9
20140922200523 78 24 6.0 16.0 0.00 0.24 0.04 49 1021.0
20140922195524 79 322 6.0 12.0 0.00 0.24 0.04 50 1020.7
20140922194523 78 327 5.0 10.0 0.00 0.24 0.04 50 1020.9
20140922193523 76 252 1.0 7.0 0.00 0.24 0.04 54 1020.7
20140922192523 75 111 2.0 12.0 0.00 0.24 0.04 54 1020.7
20140922191523 75 145 5.0 13.0 0.00 0.24 0.04 56 1020.6
20140922190523 74 117 2.0 10.0 0.00 0.24 0.04 57 1021.0
20140922185523 74 105 3.0 8.0 0.00 0.24 0.04 58 1021.4
20140922184523 73 121 5.0 8.0 0.00 0.24 0.04 60 1021.9
20140922183523 71 163 2.0 7.0 0.00 0.24 0.04 65 1022.0
20140922182523 69 127 2.0 7.0 0.00 0.24 0.04 69 1021.9
20140922181523 68 149 2.0 7.0 0.00 0.24 0.04 71 1022.2
20140922180523 67 97 2.0 6.0 0.00 0.24 0.04 76 1022.2
20140922175523 65 203 2.0 3.0 0.00 0.24 0.04 79 1022.3
20140922174524 65 142 1.0 3.0 0.00 0.24 0.04 81 1022.7
20140922173523 64 130 1.0 3.0 0.00 0.24 0.04 80 1022.5
20140922172523 64 178 1.0 5.0 0.00 0.24 0.04 81 1022.7
20140922171522 64 204 2.0 3.0 0.00 0.24 0.04 84 1022.7
20140922170523 63 175 1.0 3.0 0.00 0.24 0.04 86 1022.8
20140922165523 62 166 1.0 3.0 0.00 0.24 0.04 89 1023.3
20140922164523 61 186 1.0 5.0 0.01 0.24 0.04 93 1023.5
20140922163522 60 212 2.0 8.0 0.01 0.24 0.04 95 1023.6
20140922162523 59 200 2.0 3.0 0.03 0.24 0.04 96 1023.7